Theta_e
308 308 309 309 310 310 313 314 314 315 316 315 312 308 306 305 305 305 306 309 309 309 312 317 317 315 315 316 317 318 318 317 316 315 318 318 320 321 321 321 320 320 323 326 328
306 307 307 308 309 311 311 313 314 315 315 314 311 307 306 305 305 306 306 309 309 308 313 321 315 315 315 316 317 317 317 318 317 317 318 319 317 320 317 318 319 320 321 323 324
305 306 306 307 307 310 312 312 313 315 315 315 311 308 307 307 311 312 311 309 307 308 312 317 315 314 315 317 316 316 317 317 316 317 317 316 314 316 318 315 314 312 311 316 321
306 306 306 306 307 308 313 313 313 313 315 314 311 309 308 307 316 313 312 310 307 307 316 316 314 314 316 316 317 316 316 317 315 315 316 316 314 311 311 310 308 307 306 309 310
306 306 306 306 306 307 312 313 313 312 314 313 310 308 307 313 313 312 311 311 308 308 316 315 314 314 315 315 316 315 317 316 316 315 316 315 312 310 309 307 305 303 302 301 301
305 306 305 306 306 306 310 313 313 311 311 311 309 308 311 312 311 313 310 312 311 310 315 315 315 314 314 315 315 316 316 315 315 316 316 313 312 313 308 306 304 300 298 296 296
304 305 305 305 306 306 308 311 313 310 309 309 307 307 312 312 312 319 313 314 313 313 313 314 314 314 314 314 314 315 315 315 315 316 315 313 311 310 307 304 302 300 297 294 294
303 302 304 304 305 305 308 311 312 311 307 307 306 309 312 310 312 319 315 313 312 313 313 314 314 314 314 315 315 314 314 315 315 315 315 316 311 307 305 302 300 298 296 294 292
300 300 301 303 303 305 308 311 311 311 307 306 306 313 312 309 309 318 316 313 313 313 313 313 312 314 314 315 314 314 315 315 315 315 314 315 309 305 303 301 298 296 295 293 291
298 299 298 300 301 304 309 311 311 309 306 307 312 311 309 309 312 317 315 314 312 312 312 313 314 314 313 313 316 316 315 314 315 315 314 309 306 303 301 299 296 295 293 292 290
297 297 297 298 299 302 311 312 315 315 313 312 311 312 310 311 313 314 313 313 312 312 313 313 314 314 314 313 314 315 314 315 315 315 313 308 305 302 299 297 295 293 292 291 289
296 296 296 297 298 300 311 316 315 314 315 312 312 311 311 311 311 312 312 312 313 313 313 313 313 314 314 315 314 314 313 315 315 315 311 306 303 300 297 295 294 292 290 289 288
296 296 296 296 297 298 306 312 313 312 315 313 312 311 310 311 312 312 312 312 313 313 313 314 315 313 314 315 314 314 313 313 315 314 310 305 302 299 297 295 293 291 290 288 288
296 296 296 296 301 300 299 305 312 311 315 313 313 313 311 312 312 311 312 312 313 313 313 314 313 314 314 314 313 314 314 315 316 314 314 311 312 301 297 295 292 290 288 287 286
296 296 296 299 310 311 313 306 310 312 316 314 313 313 312 312 310 310 310 312 313 313 313 315 313 313 314 314 313 315 314 315 315 314 315 313 314 303 299 296 292 289 287 286 285
300 297 303 306 303 312 312 312 312 316 314 315 312 312 313 313 312 310 310 311 312 314 313 314 313 313 314 313 313 314 314 315 315 315 316 315 315 306 301 295 291 288 287 285 284
301 306 309 305 311 309 312 313 314 312 314 315 313 313 313 313 312 311 311 311 312 313 314 313 313 312 312 313 313 314 316 318 318 318 318 315 316 298 293 291 290 288 286 284 283
303 305 310 303 311 313 313 315 316 310 315 315 314 314 315 314 314 313 312 312 312 313 315 314 315 313 313 314 314 314 316 317 320 318 316 314 307 295 291 289 288 286 284 283 282
306 307 306 309 310 313 315 315 312 314 314 315 314 315 316 314 313 313 312 313 310 309 315 314 315 309 308 310 311 315 315 314 316 316 315 301 292 292 290 289 288 286 284 283 281
310 311 303 312 311 313 315 314 309 306 309 313 315 315 316 315 314 314 313 307 307 304 306 310 314 310 307 310 310 312 311 315 315 318 317 308 299 295 291 289 288 285 283 282 280
307 311 307 313 314 314 314 310 305 304 306 308 314 314 314 315 314 314 313 303 301 304 303 303 309 305 307 302 306 311 313 312 312 314 315 312 298 292 291 288 286 284 282 280 279
310 308 310 314 310 311 311 303 300 301 301 303 305 305 308 310 311 310 304 299 296 299 303 299 303 303 302 300 299 299 300 304 310 311 307 307 293 288 286 284 284 283 281 279 278
306 302 306 307 310 307 300 298 298 300 298 300 301 301 300 303 305 301 297 296 297 298 299 297 299 300 302 301 300 299 297 299 302 302 304 303 291 285 284 283 282 281 279 278 277
299 302 302 307 302 307 302 300 297 296 296 296 297 298 298 300 302 299 296 295 297 297 298 298 299 300 301 300 300 298 296 296 296 296 296 289 285 281 281 280 279 278 277 277 276
297 298 297 303 302 304 304 300 297 296 296 296 296 297 298 298 298 298 295 295 294 296 295 298 296 297 294 295 295 293 293 293 294 287 291 284 282 277 273 276 277 277 277 276 276
297 297 297 296 297 300 299 299 297 295 295 295 296 295 296 295 296 297 295 295 295 295 295 294 296 296 294 292 293 290 289 290 290 286 283 281 277 277 277 278 278 276 275 275 275
294 295 296 296 296 296 295 296 296 294 294 295 295 294 293 293 293 293 293 294 293 294 293 294 294 293 291 292 293 289 283 287 285 281 282 287 278 278 277 277 275 274 274 274 273
Wind_Speed
11 11 11 12 11 9 10 10 11 12 12 12 11 11 12 13 13 15 19 12 15 7 13 15 12 12 12 12 8 4 1 5 6 7 6 6 6 6 9 32 36 21 22 15 15
11 11 11 12 12 10 10 10 11 12 12 12 11 10 10 10 11 18 16 15 16 14 16 19 16 14 14 14 6 5 2 3 6 7 8 11 22 8 19 31 26 30 25 20 18
11 11 11 11 12 12 8 10 12 12 12 12 11 10 9 7 3 10 12 18 15 16 13 16 13 14 14 12 9 7 4 3 9 13 6 23 31 20 10 15 19 23 26 19 18
12 12 11 11 11 12 9 7 11 12 12 11 11 10 9 9 3 3 5 12 15 17 21 18 16 15 7 6 15 3 14 4 10 6 1 12 13 30 32 20 20 21 17 16 17
14 13 12 11 11 10 8 6 9 12 12 12 12 12 12 6 8 8 7 9 20 20 22 22 18 15 7 13 12 8 5 10 8 9 15 35 26 22 25 21 19 19 17 18 15
13 14 13 12 10 10 7 5 6 11 13 13 14 15 9 7 6 9 11 13 21 27 20 20 14 18 5 10 8 13 14 6 10 12 18 25 16 11 18 17 20 23 24 21 19
14 12 13 12 11 9 7 5 4 10 13 14 14 13 7 8 2 4 4 13 19 22 21 18 8 15 6 2 3 3 2 4 8 11 19 28 16 14 17 18 19 20 21 24 24
15 13 12 11 10 9 7 4 5 8 12 13 13 10 7 8 10 8 11 12 15 12 15 15 11 6 8 3 4 4 5 6 11 15 17 9 8 11 16 19 20 18 19 22 24
15 14 11 9 9 7 5 2 4 7 11 12 11 7 4 5 13 14 14 18 15 14 14 13 11 4 4 4 5 7 5 7 6 12 7 6 13 13 15 17 19 19 20 21 23
15 14 12 8 7 6 3 5 7 9 13 12 3 4 9 8 13 16 14 18 12 14 10 7 6 4 3 5 6 6 6 9 10 8 9 20 16 11 16 18 18 19 20 22 25
16 14 12 9 6 5 10 13 7 4 11 11 10 3 11 11 16 14 17 20 11 15 6 12 4 8 9 12 14 8 5 5 11 17 14 17 15 10 14 17 18 19 19 21 23
16 14 12 9 8 11 16 8 2 2 6 20 6 13 7 13 8 14 20 11 12 7 7 4 9 9 10 8 10 8 8 5 9 14 15 15 13 11 14 16 17 17 19 20 21
16 13 12 10 10 14 20 16 5 4 5 9 14 11 9 12 9 21 22 10 7 9 10 7 1 14 10 5 5 6 6 7 9 6 17 18 7 10 13 18 18 19 19 20 22
17 13 10 8 5 8 18 14 11 3 3 8 9 8 11 9 3 17 22 7 6 12 7 5 7 4 4 7 7 7 8 8 7 8 5 13 4 8 12 11 16 18 19 20 21
15 11 8 9 6 9 6 11 12 4 3 8 9 11 12 7 17 6 11 3 6 5 6 3 5 5 6 6 9 3 3 5 5 6 4 9 2 6 12 10 10 15 17 18 19
11 5 5 6 11 9 8 11 12 2 6 6 7 8 9 8 3 7 7 2 2 3 1 1 3 3 2 4 2 7 5 4 1 2 4 9 8 7 4 10 11 15 16 17 18
4 1 3 8 6 8 12 15 3 5 5 7 7 10 12 8 7 7 9 6 5 4 6 6 5 3 1 5 3 3 7 3 2 2 5 5 6 5 9 10 13 13 15 15 16
7 7 1 5 6 11 17 2 6 7 4 4 7 12 8 13 5 8 11 7 2 2 2 7 4 6 6 1 5 7 6 4 6 5 3 3 4 6 10 15 14 15 14 14 16
4 6 5 3 8 15 5 6 2 6 5 2 6 12 4 4 4 6 8 7 4 3 3 7 4 4 6 4 2 5 5 3 3 2 1 6 5 4 9 9 13 13 13 14 14
2 4 6 2 11 15 3 7 2 3 4 3 4 9 10 12 7 7 10 3 4 4 4 3 4 1 2 3 1 2 3 2 2 3 5 5 6 6 11 9 9 11 11 11 12
1 3 3 6 12 5 3 3 4 4 3 3 4 2 6 10 8 9 6 4 6 2 4 4 1 2 2 6 4 2 2 2 1 2 2 2 3 7 9 9 9 11 9 9 9
1 2 3 13 2 1 1 4 2 2 4 1 3 8 4 3 3 4 5 5 5 4 1 3 2 4 5 3 6 4 4 4 2 1 2 2 3 7 9 13 11 10 8 7 6
3 2 4 9 2 2 3 3 4 1 3 3 3 4 4 4 4 6 6 5 6 5 2 2 1 4 3 2 3 5 3 2 1 1 2 3 3 8 10 12 9 9 7 6 7
3 1 2 5 3 1 4 4 3 4 2 3 3 3 3 3 6 5 4 3 8 5 7 1 4 3 4 4 3 4 4 4 3 3 2 2 7 4 4 6 8 5 6 7 7
6 3 2 2 2 3 3 5 4 2 2 1 3 3 2 4 4 5 4 5 5 4 4 3 4 5 7 8 6 6 6 7 4 1 3 2 5 3 4 2 3 6 6 8 7
5 4 4 4 8 3 1 2 4 3 4 1 4 3 4 4 1 5 7 4 3 3 3 3 4 3 3 6 6 5 7 5 7 4 6 6 2 2 2 1 2 6 7 3 7
7 4 2 4 1 3 2 2 6 7 8 9 13 14 14 11 18 20 22 17 8 4 3 3 4 2 2 4 5 3 4 5 5 6 2 2 3 5 4 2 6 9 5 6 11
Wind_Direction
334 336 337 335 331 301 267 251 240 235 229 224 222 221 221 219 221 226 225 212 219 196 187 168 179 180 178 186 204 267 268 221 210 207 96 130 134 65 81 70 66 74 78 93 89
324 326 326 329 332 323 280 250 237 228 225 219 213 210 214 219 231 243 231 213 212 193 179 177 182 177 184 186 191 198 238 240 39 57 89 59 46 58 74 53 51 60 64 80 94
314 314 317 323 330 331 298 250 232 223 216 214 207 197 198 205 255 257 226 219 206 195 180 186 180 180 201 185 197 199 226 155 72 72 43 92 62 54 105 52 46 52 49 70 96
311 309 311 316 323 333 322 267 233 217 211 207 203 190 183 183 212 221 210 201 197 185 165 192 190 200 216 209 203 196 235 297 109 88 83 84 86 66 70 77 71 70 70 79 72
311 308 308 309 315 326 324 291 236 217 206 202 196 182 169 205 250 275 231 212 191 178 172 188 192 203 216 192 213 208 202 223 135 121 84 90 84 92 78 81 74 70 71 64 64
305 307 306 305 306 313 323 301 235 216 203 199 188 178 178 228 242 269 262 206 191 174 177 188 200 205 263 247 202 197 234 180 171 167 122 111 87 89 90 86 73 63 58 55 51
301 299 299 300 299 306 316 289 235 209 196 192 185 176 233 224 265 217 185 158 175 169 174 187 206 217 252 246 190 236 201 215 197 170 116 109 54 96 102 87 75 66 60 52 47
301 296 292 293 293 295 300 282 222 196 190 182 174 168 249 236 221 179 135 149 142 165 185 190 211 247 245 81 136 212 223 210 187 168 154 171 114 83 96 88 74 65 58 51 47
302 297 293 287 285 285 287 265 196 175 176 166 163 161 254 232 197 175 169 159 152 156 165 187 192 208 196 243 192 207 207 196 138 171 140 118 127 97 91 87 76 65 58 51 46
302 296 293 280 273 269 248 130 112 147 145 146 157 238 230 223 166 173 172 167 149 150 132 157 180 190 209 221 202 202 228 183 144 175 122 103 113 100 89 84 73 66 58 53 46
301 295 287 274 247 221 152 122 101 160 193 186 209 185 147 149 166 177 164 162 158 159 159 194 186 202 206 227 268 315 250 166 122 119 93 116 119 104 84 80 73 62 54 51 46
304 293 281 266 228 204 182 182 279 176 229 216 240 214 184 147 150 169 163 168 168 184 174 146 229 219 220 229 238 269 295 102 112 137 102 120 109 104 93 83 76 69 56 47 40
308 295 278 261 236 214 211 206 227 222 261 180 202 192 175 187 172 178 179 198 192 198 201 169 330 204 240 211 241 241 229 259 145 122 120 123 115 124 114 102 85 70 62 51 43
309 292 271 252 242 224 225 226 226 241 269 159 193 209 172 170 66 170 176 195 211 202 172 240 233 180 186 214 199 237 215 257 134 143 182 202 164 158 138 103 79 68 56 50 45
310 287 256 209 179 176 196 204 193 173 253 133 138 159 173 168 136 179 190 179 193 207 143 204 142 187 181 202 197 206 349 160 227 181 338 216 284 125 143 116 89 70 59 49 44
313 268 217 213 208 201 204 162 148 218 233 158 137 172 169 152 114 124 167 159 360 158 289 14 5 188 227 58 6 126 117 96 108 164 258 208 182 169 161 119 104 80 62 51 43
48 84 194 176 198 200 167 147 174 233 141 165 180 166 170 164 142 164 168 181 164 150 194 179 178 99 248 107 16 225 155 131 176 210 228 196 180 69 99 73 90 88 71 55 45
63 51 85 180 197 170 160 210 239 188 69 56 139 165 173 150 131 178 166 171 29 321 199 178 180 153 167 309 179 200 202 168 209 190 207 166 111 131 106 104 98 92 76 57 43
28 9 11 226 189 165 167 217 347 13 339 123 160 176 129 157 182 165 189 165 73 31 257 193 129 85 32 1 22 181 226 352 323 257 265 125 89 110 131 122 106 87 69 54 43
70 291 295 202 171 168 221 226 87 23 340 294 184 205 181 182 163 192 174 23 116 42 329 40 110 13 122 285 95 357 341 128 228 226 226 137 132 131 168 142 112 84 63 48 39
271 261 342 149 154 183 228 99 122 62 357 358 344 123 309 168 200 187 139 33 14 71 314 9 71 104 165 24 360 22 185 253 271 259 241 183 123 351 111 100 104 91 74 51 37
246 248 152 151 168 246 89 19 38 95 28 65 33 26 27 14 17 64 114 44 351 293 96 52 40 84 79 79 26 58 34 12 127 306 56 124 155 73 82 78 87 90 72 42 20
306 64 173 186 197 144 127 75 46 86 34 6 107 47 13 48 87 91 85 32 0 40 51 326 355 107 125 170 92 62 11 357 135 36 251 132 170 105 108 102 77 58 38 5 342
347 255 93 196 317 143 157 150 115 40 74 51 116 92 97 61 39 116 115 56 40 76 45 13 62 79 163 93 97 104 57 19 68 102 291 88 143 164 88 72 41 2 358 356 338
18 57 17 18 33 330 136 141 136 131 72 3 77 41 125 134 119 114 103 138 52 34 44 63 97 85 57 72 67 71 54 28 74 76 121 180 114 169 119 87 327 356 335 331 329
42 10 43 34 334 100 253 140 133 116 357 61 116 120 65 80 6 157 137 149 118 58 71 357 112 104 78 61 90 87 37 84 80 90 94 123 93 117 117 29 7 331 325 323 309
30 357 343 11 256 307 35 92 114 123 5 102 111 94 84 82 78 76 77 74 71 90 83 76 122 109 94 109 138 55 12 20 100 54 346 173 126 156 131 330 316 309 300 268 321